Theta_e
318 312 312 309 301 296 293 295 300 300 301 304 309 304 306 305 303 298 326 334 334 339 346 346 348 347 343 343 343 344 345 345 345 346 345 343 342 340 339 340 342 340 341 342 338 338 337 337 338
314 312 309 302 296 290 291 296 297 300 304 305 305 306 306 305 318 324 328 334 336 342 345 346 345 347 345 343 343 344 345 345 344 344 345 343 341 340 338 339 340 337 340 339 337 337 336 335 336
311 308 306 298 291 291 291 295 299 301 303 302 304 307 308 309 318 326 331 335 340 342 345 346 345 347 345 343 343 344 344 344 344 343 344 343 341 340 338 337 340 337 336 339 337 337 336 335 335
307 304 300 295 293 295 295 296 299 299 301 301 305 304 310 318 322 329 335 338 339 341 345 344 346 347 346 345 343 343 343 342 344 342 344 344 341 339 337 336 338 336 337 338 336 336 335 335 335
303 300 294 292 294 295 295 298 298 298 299 301 303 303 309 322 328 333 334 337 337 340 344 346 345 346 346 345 343 343 343 343 343 343 343 345 341 339 337 336 336 335 336 338 338 336 335 335 335
299 298 292 290 292 295 297 299 298 298 299 300 303 304 311 319 329 331 334 336 339 340 343 345 339 341 343 343 343 343 342 342 343 342 343 344 341 339 337 335 335 334 335 338 337 335 335 335 335
298 295 292 291 291 295 298 298 297 297 298 300 305 302 308 316 328 332 333 337 339 340 342 344 344 340 336 339 339 340 341 341 341 342 343 342 341 340 338 335 334 334 334 336 335 334 334 335 334
297 295 291 290 291 293 296 298 298 298 298 302 307 301 302 316 329 331 333 335 338 339 341 342 343 343 342 341 333 334 336 337 338 338 337 335 335 334 333 331 333 333 334 335 333 333 333 333 331
300 293 290 291 291 294 295 296 297 299 299 299 303 303 309 324 329 329 329 331 333 335 338 338 340 341 341 340 334 331 331 332 332 332 328 329 335 333 331 328 331 333 333 333 332 331 330 327 326
296 292 292 294 293 294 295 296 298 298 298 299 301 306 317 325 327 324 325 326 328 330 333 336 337 339 340 338 336 336 334 335 334 334 333 331 330 330 329 325 327 330 330 332 331 328 322 320 321
295 293 294 293 294 296 296 295 297 296 295 299 300 302 315 322 324 325 326 328 329 331 332 334 335 338 339 338 335 335 333 332 331 331 331 328 327 328 329 328 327 328 322 328 326 320 319 319 320
293 293 293 296 296 295 295 296 295 295 298 299 299 303 314 320 322 325 325 327 330 331 332 334 334 336 338 338 335 334 332 330 328 329 328 326 326 326 326 325 324 324 323 322 319 318 318 317 317
292 293 293 294 294 293 295 293 294 294 297 297 299 306 311 319 322 325 327 328 331 329 331 333 334 335 336 336 336 335 333 329 327 326 326 326 324 324 323 323 322 321 319 318 316 316 316 316 316
292 293 292 294 294 294 293 291 293 293 294 294 296 300 307 314 319 319 322 325 327 330 331 333 334 335 336 335 335 335 334 331 327 325 325 325 324 323 322 321 320 319 318 315 315 315 315 314 315
294 291 291 292 293 293 294 290 292 293 293 294 294 295 299 308 313 318 323 324 326 330 332 333 333 335 335 335 334 334 334 332 328 324 324 324 323 322 320 320 319 318 317 313 312 312 312 312 311
290 288 286 289 292 292 291 286 290 293 291 293 294 294 294 295 304 313 317 321 323 326 328 333 333 333 334 334 334 334 334 333 331 326 322 322 322 321 319 318 317 316 316 313 311 310 310 310 310
287 283 284 286 292 292 290 287 291 293 293 293 294 294 294 295 296 297 305 315 319 323 325 329 332 332 333 334 333 333 333 332 332 329 323 321 321 320 319 319 317 314 313 311 309 308 306 305 305
283 283 283 282 288 289 288 289 292 293 292 293 293 293 293 294 296 298 298 300 310 316 321 326 330 333 333 333 333 332 331 331 332 330 325 323 320 319 319 318 317 314 311 308 307 305 303 304 304
286 284 282 285 289 289 289 288 291 293 291 292 293 294 294 294 296 296 297 297 297 305 313 319 325 330 332 330 329 329 328 329 330 330 328 324 322 318 318 316 314 314 311 310 307 303 301 298 299
285 285 284 286 288 288 286 288 290 291 292 293 293 292 292 292 294 296 296 296 296 297 306 313 319 325 330 331 330 331 330 330 330 330 329 326 323 320 317 316 313 313 311 308 305 304 299 300 298
284 284 283 284 285 285 284 285 285 288 288 290 291 291 291 291 291 292 294 295 296 295 296 306 314 320 327 330 331 327 329 327 328 328 328 327 324 322 320 317 316 314 312 309 307 305 304 300 296
282 287 286 285 284 280 283 278 283 285 287 288 290 291 291 292 293 295 296 298 298 298 297 296 304 314 322 327 328 326 325 325 328 329 330 328 326 323 322 319 317 315 314 313 310 307 305 306 298
285 287 286 284 282 281 281 279 282 283 286 287 289 291 293 293 294 295 295 296 297 298 299 302 298 304 314 323 326 326 326 327 326 329 328 327 325 325 323 321 319 317 315 314 312 308 305 306 305
288 285 284 282 280 277 279 280 279 282 284 285 288 292 293 293 294 294 295 296 296 297 299 305 307 307 311 318 322 324 325 320 319 319 325 324 323 324 323 322 321 319 317 314 314 310 307 306 305
285 283 278 277 275 276 278 278 281 284 285 286 289 294 293 292 293 294 294 295 295 296 297 299 304 307 311 315 317 320 321 318 319 318 321 320 318 314 316 318 319 319 318 316 314 310 307 305 305
284 284 279 273 273 275 279 277 282 287 290 291 292 293 292 292 293 293 293 294 295 296 297 298 298 299 304 310 312 314 315 315 314 315 314 314 314 314 315 315 314 316 316 316 314 312 309 308 305
284 282 283 277 267 273 278 281 285 287 289 290 291 291 291 291 292 292 293 293 295 295 296 297 298 298 299 300 304 306 308 310 310 310 310 310 309 308 310 312 312 312 312 312 311 311 308 306 305
285 286 281 278 270 269 276 277 280 285 288 290 290 291 291 291 291 291 291 292 293 294 295 297 297 297 298 299 299 300 301 302 304 304 305 304 304 303 303 303 304 306 309 309 308 307 306 305 305
283 282 281 282 279 273 270 277 282 284 288 290 290 291 290 290 291 291 292 292 292 293 293 294 295 295 296 297 298 298 298 299 300 300 300 301 301 301 300 300 300 301 301 303 304 304 305 304 304
284 283 283 279 276 277 277 279 287 286 289 291 291 290 290 291 291 291 292 291 291 292 292 292 292 293 293 295 295 295 295 296 296 296 296 297 297 297 298 297 297 298 299 301 302 302 303 302 302
Wind_Speed
4 4 3 5 4 4 2 3 0 3 3 2 4 4 5 3 5 3 1 9 11 15 12 12 12 12 11 11 10 10 9 11 13 13 15 15 16 17 16 16 16 16 15 18 17 18 17 17 17
2 1 5 3 5 3 3 2 5 5 3 6 4 2 1 2 2 4 8 7 13 14 11 10 13 13 12 11 11 9 9 10 12 12 14 15 15 16 16 15 15 15 15 16 17 17 17 16 17
2 4 4 5 3 4 4 4 4 2 5 3 3 1 1 3 1 8 2 13 15 13 11 9 12 13 12 11 11 10 9 10 12 12 11 15 15 15 16 14 14 14 14 16 16 16 15 16 16
2 5 5 4 3 3 2 4 4 6 2 1 3 3 1 1 4 4 11 15 15 12 11 11 12 13 12 11 11 10 11 10 11 11 11 15 15 15 15 14 13 13 12 14 15 14 14 14 14
4 3 4 3 2 2 2 1 6 4 3 3 3 3 1 1 2 8 14 13 15 12 10 11 12 12 12 12 12 10 10 10 10 10 10 14 15 15 14 13 13 13 10 13 15 14 14 13 13
4 3 5 2 3 1 0 3 5 3 2 2 3 5 3 0 5 8 12 13 13 13 10 9 10 10 10 11 10 9 9 9 9 10 9 14 15 14 14 12 12 12 10 13 15 14 13 12 13
7 4 4 4 2 1 4 5 5 5 4 4 5 4 2 3 5 9 9 10 11 11 11 9 9 9 9 9 10 9 9 8 8 8 6 12 12 12 12 11 10 12 10 13 13 13 13 13 13
6 6 4 2 4 3 4 4 0 5 6 1 2 4 4 5 10 9 9 9 10 10 11 10 8 8 9 8 8 8 8 8 9 8 10 10 10 10 10 9 8 12 10 12 12 13 13 13 13
3 6 3 6 6 4 3 4 1 1 4 2 4 3 2 7 13 10 8 8 9 9 11 10 8 8 8 7 6 7 8 7 8 8 8 8 6 8 9 7 8 11 10 11 12 12 12 12 12
5 5 8 5 4 5 6 4 7 3 2 3 2 2 4 8 12 14 13 12 13 13 13 11 9 9 9 6 7 6 6 5 5 6 7 5 6 5 6 7 8 9 7 10 12 11 10 7 4
2 5 5 4 3 5 6 2 3 6 4 8 8 6 7 8 9 12 12 13 15 14 12 13 11 8 8 6 6 4 4 4 4 7 6 6 5 4 4 4 4 5 6 5 7 5 4 5 4
6 2 6 4 3 4 6 6 3 6 5 1 6 4 7 10 12 13 13 11 13 14 12 12 11 9 9 5 5 7 5 5 5 6 8 6 4 5 5 4 5 4 3 5 4 3 5 5 4
3 4 4 3 5 4 5 2 3 7 8 4 4 5 9 10 11 7 6 8 11 14 13 12 12 10 9 8 6 6 6 6 6 6 7 6 6 6 5 5 4 4 4 4 5 4 4 4 4
2 6 3 2 2 3 3 1 2 3 2 6 5 6 7 9 11 4 6 10 13 14 14 14 12 11 10 10 9 7 6 7 7 6 7 8 6 6 6 5 5 5 4 4 4 5 4 3 3
4 5 3 1 1 2 2 4 9 3 1 5 7 7 6 9 6 12 12 12 13 12 14 16 13 12 11 11 9 7 7 7 6 7 9 9 8 9 8 6 6 6 5 6 4 4 4 4 3
6 6 4 1 1 1 3 8 3 4 3 7 8 5 7 8 9 11 10 12 10 11 14 15 13 13 13 11 9 7 7 7 7 6 7 11 10 10 8 7 6 6 5 5 4 4 3 3 3
7 4 3 2 2 0 2 6 2 4 5 4 5 6 5 7 8 10 10 12 12 13 13 14 17 17 15 12 9 9 9 7 7 6 7 10 11 10 9 7 6 7 5 5 5 3 3 2 2
6 3 2 3 2 1 2 9 9 6 3 7 8 9 8 8 14 7 9 10 11 11 12 14 13 17 17 10 9 7 7 7 7 7 7 10 9 12 9 7 8 7 6 6 5 4 2 2 4
8 5 4 2 1 2 5 7 11 8 5 9 10 10 9 9 6 5 7 6 7 8 12 15 14 15 12 10 9 9 9 9 7 7 10 11 10 10 11 7 7 8 9 9 9 5 5 3 5
4 6 3 1 2 2 4 11 11 8 8 7 7 8 9 7 9 6 5 4 6 6 10 10 13 13 14 11 12 9 9 8 9 7 9 11 11 11 10 10 9 10 8 9 10 9 3 4 9
1 6 4 3 2 3 4 8 7 5 4 5 3 5 4 7 10 7 7 5 3 4 6 8 11 11 13 13 8 4 2 2 6 8 8 10 12 12 13 13 10 10 9 9 11 11 12 7 6
6 6 6 5 4 4 3 6 7 5 10 5 4 3 5 6 4 3 5 6 5 5 4 5 6 9 10 11 10 15 12 11 8 8 7 7 11 11 12 12 12 13 10 12 13 12 10 8 9
4 6 6 4 4 2 3 2 9 3 7 4 2 5 5 5 4 5 5 5 5 6 5 3 4 5 5 9 11 11 11 7 2 5 9 8 9 12 12 12 12 11 10 12 11 10 13 11 8
10 7 8 5 3 2 5 5 7 5 6 2 2 4 6 6 5 5 5 6 5 6 6 5 4 1 4 6 8 11 11 5 4 3 6 6 5 7 9 11 11 12 11 11 11 12 12 12 11
2 7 3 3 2 7 2 1 10 5 5 3 4 5 6 5 5 5 7 7 6 7 7 6 6 5 4 3 4 5 6 6 7 7 5 4 4 3 5 7 8 7 9 9 9 9 11 12 12
7 7 7 9 6 3 2 8 8 3 2 0 2 4 5 6 5 6 6 6 6 7 7 6 7 7 6 6 4 3 3 2 2 3 2 2 2 2 2 4 4 4 5 7 8 7 9 9 10
6 5 6 9 3 4 5 7 11 1 2 3 4 6 5 6 5 6 6 6 6 6 6 6 7 7 7 6 5 5 4 4 3 2 2 1 2 2 3 4 4 5 5 6 6 7 8 8 10
4 9 4 3 4 4 5 6 7 4 8 6 4 5 5 5 6 6 6 6 6 5 4 7 7 8 6 6 5 5 4 5 4 3 1 1 2 2 3 4 5 5 6 4 4 4 4 7 7
4 3 4 5 5 7 2 8 7 6 8 9 7 5 4 4 4 5 6 6 6 6 7 8 9 9 8 7 6 7 6 5 4 5 4 3 3 3 3 3 4 5 5 6 6 8 8 8 9
1 7 7 7 6 2 3 10 1 6 8 8 7 7 5 4 4 5 6 6 8 8 8 9 8 9 8 6 5 7 6 6 6 5 4 4 4 3 4 4 4 5 5 5 8 9 8 10 11
Wind_Direction
41 29 68 42 54 62 172 222 182 140 144 155 123 152 190 139 160 200 335 177 143 150 158 162 146 140 138 130 125 124 123 120 112 107 109 100 95 90 89 85 82 78 88 90 84 79 79 80 82
52 25 45 79 89 76 259 233 185 189 147 118 114 119 169 123 94 98 118 190 155 149 154 159 142 138 138 137 134 130 127 121 116 112 117 112 99 98 97 93 91 86 85 91 89 86 85 85 84
84 45 84 95 110 175 202 202 177 141 151 119 114 63 132 149 99 162 167 151 146 147 150 154 137 139 143 141 136 133 128 128 122 118 118 117 109 103 100 98 94 91 94 96 89 86 88 88 88
100 25 43 86 214 229 185 179 167 126 247 219 134 99 315 262 158 184 141 143 143 145 148 155 142 145 145 144 142 139 133 133 127 122 119 125 116 107 104 101 95 89 96 100 94 90 90 91 89
38 62 72 85 262 284 276 178 152 141 157 162 180 176 131 64 62 133 143 147 146 147 149 156 144 146 146 148 148 142 136 133 128 126 120 127 120 111 107 107 105 97 93 101 99 96 92 90 90
54 106 73 178 247 316 324 179 135 119 181 151 110 146 172 272 129 151 145 149 150 150 151 152 146 144 147 150 146 142 137 133 128 128 128 133 125 119 109 112 113 109 111 106 101 99 97 94 92
120 88 159 155 168 22 182 167 142 166 151 247 156 134 165 177 145 145 142 140 145 150 151 152 160 154 151 151 147 143 136 131 124 122 123 122 120 113 115 117 124 117 118 113 109 106 102 96 89
111 90 103 185 175 209 168 180 88 163 213 51 176 193 194 181 142 131 131 139 146 152 160 163 164 162 162 161 151 145 141 138 130 119 112 112 112 112 115 118 128 122 123 116 115 107 98 91 84
153 71 144 189 155 203 154 171 176 267 133 212 200 161 9 120 128 125 133 149 156 170 169 177 173 172 167 165 162 148 142 137 125 114 109 112 128 128 127 128 123 123 123 119 113 102 95 88 80
89 107 200 184 189 183 179 173 170 151 163 241 251 116 88 145 150 155 168 177 181 181 184 183 180 173 169 168 162 164 154 155 148 141 138 131 133 136 135 128 116 120 116 119 111 107 95 85 89
139 159 169 188 198 140 157 195 185 139 237 221 205 178 154 171 173 168 177 186 189 187 190 191 189 179 174 169 170 171 166 161 158 156 152 143 141 144 141 138 132 132 107 114 113 110 94 100 104
97 83 141 148 135 135 162 124 221 193 227 197 225 166 161 175 189 187 184 183 186 193 194 193 193 184 181 169 171 179 177 174 173 173 163 158 157 158 155 156 151 145 142 134 130 122 115 109 108
101 146 118 107 109 101 127 187 244 252 252 272 89 162 187 190 202 204 188 170 186 201 199 196 193 190 182 182 177 176 177 182 183 176 174 169 169 170 162 164 164 159 152 155 147 139 132 126 123
122 101 100 72 99 98 138 216 42 272 332 231 205 210 211 206 203 152 193 190 190 198 203 201 194 192 188 190 184 183 178 177 179 184 185 183 176 172 178 173 176 175 175 163 159 157 148 135 131
98 82 58 5 298 83 132 278 233 230 282 298 221 232 233 230 187 211 208 209 197 200 198 204 198 193 193 193 187 186 183 174 178 182 187 188 182 182 182 182 184 186 179 166 155 150 140 142 136
79 53 121 263 187 336 108 260 279 16 210 250 246 241 242 248 229 230 218 215 206 197 194 198 201 199 197 197 189 190 187 183 187 179 180 191 190 185 184 190 189 175 181 177 174 166 166 167 173
18 170 184 301 195 330 163 259 267 37 22 305 272 258 252 278 262 243 231 225 214 208 202 199 201 205 203 202 194 194 190 191 188 179 179 186 188 189 190 199 185 160 164 183 174 166 141 168 168
180 159 196 231 231 206 228 260 282 276 287 267 277 272 276 263 260 247 238 224 224 211 208 208 198 204 205 198 197 192 189 194 191 187 186 180 186 188 192 195 183 169 168 166 171 152 150 164 182
130 126 164 216 359 224 245 268 268 281 263 256 263 271 270 266 282 254 255 256 233 224 209 206 197 199 198 199 194 193 198 193 194 192 185 184 185 185 192 195 187 184 189 190 181 155 175 184 162
117 122 211 36 14 184 0 288 265 257 248 234 241 267 275 288 298 311 327 280 223 233 216 210 209 197 197 202 206 206 199 203 200 191 186 186 184 185 190 193 194 193 188 183 181 185 163 178 181
116 147 186 171 57 34 340 298 314 298 275 280 255 260 291 281 288 310 333 333 322 249 225 208 209 203 199 201 195 187 149 119 185 194 190 194 189 187 193 195 195 200 195 200 196 197 195 202 190
169 191 145 128 90 233 351 278 293 301 302 284 289 26 348 356 6 12 9 21 14 348 318 239 215 203 200 189 190 204 209 207 205 198 195 188 192 196 199 201 199 198 202 206 205 196 206 202 201
187 126 126 88 102 70 311 66 270 4 282 270 157 8 359 349 342 14 27 17 19 7 357 327 224 208 191 194 199 200 209 216 172 190 175 184 191 200 200 203 203 206 207 219 209 203 206 209 203
155 84 57 61 83 310 234 168 272 205 218 173 321 358 354 347 3 30 29 27 20 10 15 13 53 76 192 184 190 195 206 167 160 162 186 183 189 202 208 206 204 205 206 210 210 207 210 214 219
87 94 38 9 353 227 345 183 248 250 237 223 304 358 0 7 39 36 26 22 20 23 19 16 30 46 50 148 171 186 185 173 187 185 200 165 184 191 211 202 206 208 209 209 203 201 205 204 211
192 156 152 194 200 247 51 234 249 166 58 94 60 55 43 38 30 33 25 27 28 26 28 38 50 40 33 51 67 79 112 137 147 160 169 172 188 185 174 215 217 217 208 214 210 214 213 213 220
194 191 155 107 27 52 218 284 300 313 160 112 103 81 58 46 34 32 32 37 38 42 41 49 56 54 46 44 57 62 69 86 105 99 100 173 222 239 244 237 230 225 218 212 207 218 212 208 214
161 158 90 3 133 244 272 271 237 203 190 167 136 102 67 43 36 36 31 33 34 35 41 51 61 64 55 59 57 68 57 60 69 85 82 218 237 239 253 262 246 243 244 233 227 234 225 221 224
141 177 65 122 147 172 223 255 217 215 170 168 165 126 109 91 74 57 48 39 45 49 41 46 48 46 46 44 39 45 42 36 48 60 35 335 328 317 278 271 280 263 248 235 240 247 247 237 236
301 186 154 147 214 241 155 255 315 234 175 157 155 134 127 114 96 79 63 51 46 45 39 43 39 47 35 37 59 56 44 37 36 37 22 352 330 327 299 292 277 278 273 251 247 248 241 238 245